Content
SEND FEEDBACK

Daily
Averages
Monthly
Summary
Canada

MONTREAL, QUEBEC


Home > North America > Canada > Quebec
Elevation: 35 meters     Latitude: 45 28N     Longitude: 073 45W

WEATHER
 
SELECT A DAY
Number of Records: 198,022;   Date Range: 1/1/95 - 7/20/14
 
SHARE

PRINT THIS DATA

[ ← Previous Day ]
WEATHER ALMANAC - 22 MAY, 2013
[ Next Day → ]
[ °F ]   °C
Weather ElementAverageHighLow
Temperature16.4 °C23 °C (4:00 pm)13 °C (2:00 am)
Dewpoint13.9 °C17 °C (4:00 pm)12 °C (12:31 am)
Humidity85.6 %94 % (2:00 am)67 % (2:00 pm)
Barometer1008.5 hPa1010.8 hPa (7:43 am)1003 hPa (11:36 pm)
Wind Speed11.9 km/h24.1 km/h (7:15 pm)
Weather ElementAverage
Visibility19.6 km
Wind DirectionE (90.3 °)

Weather ElementTotal
Precipitation---
Heating Degree Days0.3 (Base 18.3)
Growing Degree Days8 (Base 10)
Averaged from 37 records on 22 May, 2013
WEATHER CONDITIONS BREAKOUT
WIND DIRECTION BREAKOUT
WEATHER BY HOUR - 22 MAY, 2013
[ °F ]   °C
Local TimeTemperatureDewpointHumidityBarometerVisibilityWind DirectionWind SpeedGust SpeedPrecipitationEventsConditions
12:31 AM14 °C12 °C88 %1008.5 hPa24.1 kmNE (50°)20.4 km/hOvercast
1:00 AM14 °C12 °C88 %1008.8 hPa24.1 kmNE (50°)13 km/hOvercast
2:00 AM13.3 °C12.2 °C89 %1009.5 hPa24.1 kmNE (40°)11.1 km/hPartly Cloudy
2:00 AM13 °C12 °C94 %1009.5 hPa24.1 kmNE (40°)13 km/hOvercast
2:12 AM14 °C12 °C88 %1009.5 hPa24.1 kmNorth (10°)13 km/hLight Drizzle
3:00 AM13 °C12 °C94 %1008.8 hPa24.1 kmNNE (30°)14.8 km/hOvercast
4:00 AM13 °C12 °C94 %1009.1 hPa24.1 kmNorth (350°)11.1 km/hOvercast
5:00 AM13 °C12 °C94 %1009.1 hPa24.1 kmNNE (20°)11.1 km/hOvercast
5:17 AM13 °C12 °C94 %1009.1 hPa24.1 kmNNE (20°)11.1 km/hOvercast
6:00 AM13 °C12 °C94 %1009.5 hPa16.1 kmNNW (340°)5.6 km/hOvercast
6:30 AM13 °C12 °C94 %1010.2 hPa9.7 kmNorth (350°)9.3 km/hLight Drizzle
7:00 AM13 °C12 °C94 %1010.2 hPa8 kmNW (320°)11.1 km/hLight Drizzle
7:43 AM13 °C12 °C94 %1010.8 hPa12.9 kmNorth (360°)7.4 km/hOvercast
8:00 AM13.3 °C12.2 °C91 %1010.5 hPa11.3 kmNorth9.3 km/hRainLight Drizzle
8:00 AM14 °C12 °C88 %1010.5 hPa12.9 kmNorth (10°)11.1 km/hOvercast
9:00 AM14 °C13 °C94 %1010.8 hPa16.1 kmNE (50°)5.6 km/hOvercast
9:42 AM15 °C13 °C88 %1010.5 hPa19.3 kmESE (120°)5.6 km/hOvercast
10:00 AM15 °C13 °C88 %1010.5 hPa19.3 kmVariable3.7 km/hOvercast
11:00 AM16 °C13 °C82 %1010.8 hPa24.1 kmCalmOvercast
12:00 PM17 °C13 °C77 %1010.2 hPa24.1 kmESE (110°)9.3 km/hOvercast
1:00 PM18 °C14 °C77 %1010.2 hPa24.1 kmSSE (150°)14.8 km/hOvercast
2:00 PM19.4 °C14.4 °C67 %1009.1 hPa24.1 kmESE (110°)7.4 km/hPartly Cloudy
2:00 PM19 °C15 °C78 %1009.1 hPa24.1 kmEast (80°)3.7 km/hMostly Cloudy
3:00 PM21 °C16 °C73 %1008.1 hPa19.3 kmNE (40°)5.6 km/hMostly Cloudy
4:00 PM23 °C17 °C69 %1007.8 hPa19.3 kmESE (110°)14.8 km/hMostly Cloudy
5:00 PM23 °C17 °C69 %1007.5 hPa19.3 kmESE (110°)16.7 km/hOvercast
6:00 PM21 °C16 °C73 %1006.8 hPa19.3 kmNNE (30°)20.4 km/hOvercast
6:09 PM21 °C16 °C73 %1006.4 hPa19.3 kmNNE (30°)22.2 km/hOvercast
7:00 PM20 °C16 °C78 %1006.8 hPa19.3 kmNE (40°)20.4 km/hOvercast
7:15 PM19 °C16 °C83 %1006.4 hPa19.3 kmNE (40°)24.1 km/hRainLight Rain Showers
8:00 PM18.3 °C16.7 °C85 %1006.8 hPa19.3 kmNE (40°)18.5 km/hRainLight Rain Showers
8:00 PM18 °C16 °C88 %1006.8 hPa19.3 kmNE (40°)18.5 km/hOvercast
8:29 PM18 °C16 °C88 %1006.8 hPa16.1 kmNorth (10°)14.8 km/hOvercast
9:00 PM17 °C15 °C88 %1006.8 hPa19.3 kmNNE (20°)13 km/hMostly Cloudy
10:00 PM17 °C16 °C94 %1005.8 hPa24.1 kmNE (50°)7.4 km/hScattered Clouds
11:00 PM19 °C17 °C88 %1004.1 hPa16.1 kmEast (80°)9.3 km/hScattered Clouds
11:36 PM19 °C17 °C88 %1003 hPa16.1 kmEast (90°)11.1 km/hThunderstormThunderstorm
Hourly data recorded from CYUL, located 0 kilometers away from Montreal, Quebec







STORIES FROM OUR PARTNERS